Preview of NWS' New Version of Forecast
This preview is not operational and should not be used for support decisions.

Regional Weather Roundup (RWR)

Issued by National Weather Service (NWS)

                            
000
ASUS44 KMEG 201600
RWRTN 
TENNESSEE HOURLY STATE WEATHER ROUNDUP
NATIONAL WEATHER SERVICE MEMPHIS TN
1100 AM CDT THU JUN 20 2019

TNZ002-004-019-021-049-052-054-088>092-201700-
WEST TENNESSEE
  
CITY           SKY/WX    TMP DP  RH WIND       PRES   REMARKS
MEMPHIS INTL   PTSUNNY   79  69  71 W10G22    29.83R                  
NWS MEMPHIS      N/A     79 N/A N/A MISG        N/A                   
JACKSON        CLOUDY    77  69  76 W10       29.82R                  
DYERSBURG      PTSUNNY   79  70  74 W9        29.81R                  
$$

TNZ008-025-027-028-033-062-065-066-201700-
NORTH MIDDLE TENNESSEE
  
CITY           SKY/WX    TMP DP  RH WIND       PRES   REMARKS
NASHVILLE      PTSUNNY   76  68  76 SW8       29.79R                  
CLARKSVILLE    PTSUNNY   75  69  81 W9        29.76R                  
SMYRNA         FAIR      75  69  81 S7        29.80S                  
CROSSVILLE     LGT RAIN  68  64  87 W9        29.87S                  
$$

TNZ061-075-076-078-094-096-097-201700-
SOUTH MIDDLE TENNESSEE
  
CITY           SKY/WX    TMP DP  RH WIND       PRES   REMARKS
$$

TNZ017-018-042-046-047-201700-
NORTHEAST TENNESSEE
  
CITY           SKY/WX    TMP DP  RH WIND       PRES   REMARKS
TRI CITIES     LGT RAIN  71  65  81 SW12      29.84S                  
$$

TNZ012-013-036-069-073-074-201700-
CENTRAL EAST TENNESSEE
  
CITY           SKY/WX    TMP DP  RH WIND       PRES   REMARKS
KNOXVILLE      LGT RAIN  75  67  76 SW16      29.84R                  
OAK RIDGE      CLOUDY    73  67  81 VRB3      29.85R                  
$$

TNZ083-085-099-201700-
SOUTHEAST TENNESSEE
  
CITY           SKY/WX    TMP DP  RH WIND       PRES   REMARKS
CHATTANOOGA    LGT RAIN  76  68  76 S10       29.84S                  
$$

SKY/WX REPORTED AS FAIR MEANS FEW OR NO CLOUDS BELOW
12 THOUSAND FEET.